Weather in Darvag

Russia / Republic of Dagestan     42°01′18″N   48°03′55″E
temp.,
°C
wind,
m/s
gust,
m/s
humid.,
%
clouds,
%
prec.,
mm/h
press.,
hPa
HPBL,
m
14 april, wed
wed1400:00+11sw21510 0.0 101610
03:00+10sw11535 0.0 101510
06:00+10wsw11533 0.0 101410
09:00+13nne32501 0.0 1015515
12:00+14nne5459100 0.1 1014966
15:00+11n6108089 0.6 1015918
18:00+11nw2380100 1.1 1015299
21:00+9ssw21784 1.1 101711
15 april, thu
thu1500:00+8s228476 0.0 101711
03:00+7ssw227999 0.0 101712
06:00+8ssw22675 0.0 101823
09:00+14se33510 0.0 1017760
12:00+17se644518 0.0 10161500
15:00+16se654942 0.0 10161114
18:00+12se3565100 0.0 1017266
21:00+11sw2270100 0.0 101815
16 april, fri
fri1600:00+11sw2266100 0.0 101711
03:00+11wsw2266100 0.0 101711
06:00+11w226310 0.0 101816
09:00+16ne324612 0.0 1018912
12:00+18ene534138 0.0 10171571
15:00+17e3346100 0.6 10171119
18:00+13ese226544 1.2 101862
21:00+11ssw1175100 1.5 101811
17 april, sat
sat1700:00+11sw21715 0.0 101710
03:00+10sw11653 0.0 101710
06:00+11w11588 0.0 101811
09:00+16nne3249100 0.0 1018443
12:00+16n5546100 0.0 1018819
15:00+14n5649100 0.0 1019747
18:00+12nnw2355100 0.0 102198
21:00+12nnw1159100 0.0 102211
18 april, sun
sun1800:00+11nne1165100 0.0 102124
03:00+9w1178100 0.0 102111
06:00+9wnw118367 0.0 102130
09:00+13ene2270100 0.0 1019740
12:00+14nne4367100 0.0 1019991
15:00+13nnw227189 0.1 1019685
18:00+12ne2267100 0.0 1019193
21:00+9wsw117982 0.0 102010